When you browse on this site, cookies collect data to enhance your experience and personalize the content and advertising you see.
Visit our Privacy Policy to learn more. By continuing to use the site, you agree to this use of cookies and data.
  • In Hungary
  • List of Countries
  • For 7 days
  • Water Temperature
  • Satellite Maps
  • Weather Map
  • News
  • Weather Widgets
  • user-avatar
    Login

    Hourly Weather Pingliang

    Today, 19 April, Friday

    Time Temperature Precipitation Wind Pressure Humidity
    00:00 +18°C° 0 mm 2 mps 640 mmHg 76%
    01:00 +17°C° 0 mm 2 mps 640 mmHg 80%
    02:00 +17°C° 0 mm 2 mps 640 mmHg 83%
    03:00 +16°C° 0 mm 2 mps 640 mmHg 85%
    04:00 +16°C° 0 mm 2 mps 640 mmHg 88%
    05:00 +16°C° 0 mm 2 mps 640 mmHg 87%
    06:00 +16°C° 0 mm 3 mps 641 mmHg 86%
    07:00 +16°C° 0 mm 3 mps 641 mmHg 86%
    08:00 +18°C° 0 mm 3 mps 642 mmHg 79%
    09:00 +19°C° 0 mm 4 mps 642 mmHg 72%
    10:00 +21°C° 0 mm 4 mps 642 mmHg 66%
    11:00 +22°C° 0 mm 5 mps 642 mmHg 61%
    12:00 +23°C° 0 mm 5 mps 643 mmHg 56%
    13:00 +24°C° 0 mm 6 mps 642 mmHg 51%
    14:00 +24°C° 0.1 mm 6 mps 642 mmHg 52%
    15:00 +24°C° 0.1 mm 6 mps 642 mmHg 52%
    16:00 +24°C° 0.1 mm 6 mps 641 mmHg 53%
    17:00 +23°C° 0.4 mm 5 mps 641 mmHg 59%
    18:00 +21°C° 0.4 mm 5 mps 641 mmHg 65%
    19:00 +20°C° 0.4 mm 4 mps 641 mmHg 72%
    20:00 +19°C° 1.8 mm 4 mps 641 mmHg 75%
    21:00 +19°C° 1.8 mm 3 mps 642 mmHg 78%
    22:00 +18°C° 1.8 mm 3 mps 643 mmHg 82%
    23:00 +16°C° 0.9 mm 5 mps 643 mmHg 76%

    Tomorrow, 20 April, Saturday

    Time Temperature Precipitation Wind Pressure Humidity
    00:00 +15°C° 0.9 mm 7 mps 643 mmHg 71%
    01:00 +13°C° 0.9 mm 9 mps 643 mmHg 65%
    02:00 +12°C° 2.2 mm 9 mps 643 mmHg 71%
    03:00 +12°C° 2.2 mm 8 mps 643 mmHg 76%
    04:00 +11°C° 2.2 mm 8 mps 643 mmHg 82%
    05:00 +11°C° 2.5 mm 8 mps 644 mmHg 81%
    06:00 +10°C° 2.5 mm 7 mps 644 mmHg 80%
    07:00 +10°C° 2.5 mm 7 mps 644 mmHg 80%
    08:00 +11°C° 0.2 mm 6 mps 645 mmHg 74%
    09:00 +13°C° 0.2 mm 6 mps 646 mmHg 68%
    10:00 +14°C° 0.2 mm 5 mps 646 mmHg 62%
    11:00 +15°C° 0 mm 5 mps 646 mmHg 56%
    12:00 +17°C° 0 mm 4 mps 646 mmHg 50%
    13:00 +18°C° 0 mm 3 mps 646 mmHg 44%
    14:00 +19°C° 0 mm 3 mps 645 mmHg 42%
    15:00 +19°C° 0 mm 3 mps 645 mmHg 41%
    16:00 +19°C° 0 mm 3 mps 644 mmHg 40%
    17:00 +18°C° 0 mm 2 mps 644 mmHg 48%
    18:00 +17°C° 0 mm 2 mps 644 mmHg 56%
    19:00 +15°C° 0 mm 2 mps 643 mmHg 65%
    20:00 +15°C° 0 mm 1 mps 643 mmHg 66%
    21:00 +15°C° 0 mm 1 mps 644 mmHg 66%
    22:00 +13°C° 0 mm 0 mps 644 mmHg 67%
    23:00 +13°C° 0 mm 0 mps 644 mmHg 67%

    Day after tomorrow, 21 April, Sunday

    Time Temperature Precipitation Wind Pressure Humidity
    00:00 +12°C° 0 mm 0 mps 643 mmHg 67%
    01:00 +12°C° 0 mm 0 mps 643 mmHg 67%
    02:00 +12°C° 0 mm 0 mps 643 mmHg 68%
    03:00 +11°C° 0 mm 0 mps 642 mmHg 68%
    04:00 +11°C° 0 mm 0 mps 642 mmHg 68%
    05:00 +13°C° 0 mm 1 mps 643 mmHg 65%
    06:00 +14°C° 0 mm 1 mps 643 mmHg 61%
    07:00 +15°C° 0 mm 1 mps 644 mmHg 58%
    08:00 +16°C° 0 mm 1 mps 644 mmHg 54%
    09:00 +17°C° 0 mm 2 mps 645 mmHg 50%
    10:00 +18°C° 0 mm 2 mps 645 mmHg 46%
    11:00 +19°C° 0 mm 3 mps 645 mmHg 44%
    12:00 +20°C° 0 mm 3 mps 644 mmHg 42%
    13:00 +20°C° 0 mm 3 mps 644 mmHg 40%
    14:00 +20°C° 0 mm 3 mps 643 mmHg 46%
    15:00 +19°C° 0 mm 4 mps 643 mmHg 52%
    16:00 +19°C° 0 mm 5 mps 642 mmHg 58%
    17:00 +18°C° 0 mm 4 mps 642 mmHg 64%
    18:00 +17°C° 0 mm 4 mps 642 mmHg 70%
    19:00 +16°C° 0 mm 3 mps 642 mmHg 76%
    20:00 +14°C° 0 mm 3 mps 643 mmHg 80%
    21:00 +14°C° 0 mm 3 mps 643 mmHg 85%
    22:00 +13°C° 0 mm 3 mps 643 mmHg 90%
    23:00 +14°C° 0 mm 2 mps 643 mmHg 90%

    22 April, Monday

    Time Temperature Precipitation Wind Pressure Humidity
    00:00 +13°C° 0 mm 2 mps 643 mmHg 91%
    01:00 +13°C° 0 mm 2 mps 642 mmHg 91%
    02:00 +13°C° 0 mm 1 mps 642 mmHg 91%
    03:00 +13°C° 0 mm 1 mps 642 mmHg 92%
    04:00 +12°C° 0 mm 1 mps 642 mmHg 92%
    05:00 +13°C° 0 mm 1 mps 642 mmHg 89%
    06:00 +13°C° 0 mm 2 mps 642 mmHg 87%
    07:00 +13°C° 0 mm 2 mps 643 mmHg 84%
    08:00 +15°C° 0 mm 2 mps 643 mmHg 76%
    09:00 +17°C° 0 mm 2 mps 644 mmHg 68%
    10:00 +19°C° 0 mm 2 mps 644 mmHg 61%
    11:00 +20°C° 0 mm 2 mps 644 mmHg 55%
    12:00 +21°C° 0 mm 2 mps 644 mmHg 49%
    13:00 +24°C° 0 mm 2 mps 643 mmHg 43%
    14:00 +24°C° 0.1 mm 2 mps 643 mmHg 42%
    15:00 +24°C° 0.1 mm 3 mps 643 mmHg 42%
    16:00 +25°C° 0.1 mm 3 mps 642 mmHg 41%
    17:00 +22°C° 0.1 mm 3 mps 642 mmHg 50%
    18:00 +20°C° 0.1 mm 4 mps 642 mmHg 59%
    19:00 +18°C° 0.1 mm 4 mps 642 mmHg 69%
    20:00 +18°C° 0 mm 4 mps 642 mmHg 74%
    21:00 +17°C° 0 mm 3 mps 643 mmHg 80%
    22:00 +16°C° 0 mm 3 mps 643 mmHg 85%
    23:00 +15°C° 0 mm 2 mps 642 mmHg 86%

    23 April, Tuesday

    Time Temperature Precipitation Wind Pressure Humidity
    00:00 +15°C° 0 mm 2 mps 642 mmHg 87%
    01:00 +15°C° 0 mm 1 mps 642 mmHg 89%
    02:00 +14°C° 0 mm 1 mps 642 mmHg 89%
    03:00 +14°C° 0 mm 1 mps 642 mmHg 89%
    04:00 +14°C° 0 mm 1 mps 642 mmHg 89%
    05:00 +15°C° 0 mm 1 mps 642 mmHg 85%
    06:00 +15°C° 0 mm 1 mps 642 mmHg 80%
    07:00 +16°C° 0 mm 1 mps 643 mmHg 76%
    08:00 +18°C° 0 mm 2 mps 643 mmHg 68%
    09:00 +20°C° 0 mm 3 mps 644 mmHg 61%
    10:00 +22°C° 0 mm 3 mps 644 mmHg 53%
    11:00 +23°C° 0 mm 4 mps 644 mmHg 49%
    12:00 +25°C° 0 mm 4 mps 644 mmHg 45%
    13:00 +27°C° 0 mm 4 mps 644 mmHg 41%
    14:00 +27°C° 0 mm 5 mps 643 mmHg 41%
    15:00 +27°C° 0 mm 5 mps 643 mmHg 42%
    16:00 +27°C° 0 mm 5 mps 642 mmHg 42%
    17:00 +25°C° 0.1 mm 5 mps 642 mmHg 48%
    18:00 +22°C° 0.1 mm 4 mps 642 mmHg 54%
    19:00 +21°C° 0.1 mm 3 mps 642 mmHg 61%
    20:00 +20°C° 0.1 mm 3 mps 642 mmHg 63%
    21:00 +20°C° 0.1 mm 2 mps 643 mmHg 65%
    22:00 +19°C° 0.1 mm 2 mps 643 mmHg 67%
    23:00 +20°C° 0 mm 1 mps 643 mmHg 68%

    24 April, Wednesday

    Time Temperature Precipitation Wind Pressure Humidity
    00:00 +19°C° 0 mm 1 mps 643 mmHg 69%
    01:00 +19°C° 0 mm 1 mps 643 mmHg 69%
    02:00 +19°C° 0 mm 1 mps 643 mmHg 67%
    03:00 +18°C° 0 mm 2 mps 644 mmHg 64%
    04:00 +18°C° 0 mm 2 mps 644 mmHg 62%
    05:00 +18°C° 0 mm 3 mps 644 mmHg 54%
    06:00 +19°C° 0 mm 3 mps 645 mmHg 45%
    07:00 +20°C° 0 mm 3 mps 645 mmHg 37%
    08:00 +21°C° 0 mm 3 mps 646 mmHg 34%
    09:00 +24°C° 0 mm 3 mps 646 mmHg 30%
    10:00 +25°C° 0 mm 3 mps 647 mmHg 27%
    11:00 +26°C° 0 mm 3 mps 646 mmHg 26%
    12:00 +27°C° 0 mm 2 mps 646 mmHg 24%
    13:00 +28°C° 0 mm 2 mps 646 mmHg 23%
    14:00 +28°C° 0 mm 2 mps 645 mmHg 23%
    15:00 +28°C° 0 mm 3 mps 645 mmHg 23%
    16:00 +29°C° 0 mm 3 mps 644 mmHg 23%
    17:00 +27°C° 0 mm 3 mps 644 mmHg 29%
    18:00 +25°C° 0 mm 3 mps 643 mmHg 34%
    19:00 +24°C° 0 mm 3 mps 643 mmHg 39%
    20:00 +23°C° 0 mm 2 mps 643 mmHg 41%
    21:00 +21°C° 0 mm 2 mps 643 mmHg 44%
    22:00 +21°C° 0 mm 2 mps 644 mmHg 46%
    23:00 +20°C° 0 mm 2 mps 643 mmHg 47%
    Show more